This is the latest recevied weather packets stored in our database for station/object WX1N. If no packets are shown the sender has not sent any weather packets the latest 10 day(s).
| Time | Temp. | Humidity | Pressure | Rain* | Wind** | Luminosity | Snow |
|---|---|---|---|---|---|---|---|
| 1777035603 | 6.11° C | 58% | 1011.6 hPa | 0 mm | - | - | - |
| 1777035303 | 6.11° C | 58% | 1011.6 hPa | 0 mm | - | - | - |
| 1777035003 | 5.56° C | 60% | 1011.6 hPa | 0 mm | - | - | - |
| 1777034703 | 5.56° C | 62% | 1011.6 hPa | 0 mm | - | - | - |
| 1777034403 | 5.56° C | 59% | 1011.6 hPa | 0 mm | - | - | - |
| 1777034103 | 5° C | 59% | 1011.6 hPa | 0 mm | - | - | - |
| 1777033803 | 5° C | 59% | 1011.7 hPa | 0 mm | - | - | - |
| 1777033503 | 5° C | 60% | 1011.7 hPa | 0 mm | - | - | - |
| 1777033203 | 5° C | 61% | 1011.9 hPa | 0 mm | - | - | - |
| 1777032902 | 4.44° C | 63% | 1012 hPa | 0 mm | - | - | - |
| 1777032603 | 4.44° C | 61% | 1011.9 hPa | 0 mm | - | - | - |
| 1777032303 | 4.44° C | 64% | 1012.2 hPa | 0 mm | - | - | - |
| 1777032003 | 4.44° C | 64% | 1012.1 hPa | 0 mm | - | - | - |
| 1777031703 | 4.44° C | 65% | 1012.1 hPa | 0 mm | - | - | - |
| 1777031403 | 3.89° C | 68% | 1012.2 hPa | 0 mm | - | - | - |
| 1777031103 | 3.89° C | 67% | 1012.1 hPa | 0 mm | - | - | - |
| 1777030803 | 3.89° C | 66% | 1012.1 hPa | 0 mm | - | - | - |
| 1777030503 | 3.33° C | 68% | 1012.2 hPa | 0 mm | - | - | - |
| 1777030203 | 3.33° C | 69% | 1012.1 hPa | 0 mm | - | - | - |
| 1777029903 | 3.33° C | 68% | 1012.2 hPa | 0 mm | - | - | - |
| 1777029602 | 3.33° C | 69% | 1012 hPa | 0 mm | - | - | - |
| 1777029303 | 2.78° C | 70% | 1012.1 hPa | 0 mm | - | - | - |
| 1777029003 | 2.78° C | 71% | 1012.1 hPa | 0 mm | - | - | - |
| 1777028703 | 2.22° C | 72% | 1012 hPa | 0 mm | - | - | - |
| 1777028403 | 2.22° C | 72% | 1012.1 hPa | 0 mm | - | - | - |
* Rain latest hour (hover to see other rain measurements)
** Current wind speed in m/s (hover to see current wind gust speed)